www.pogodaiklimat.ru

Погода и климат >> Архив погоды >> Индонезия >> Сарми


ПОГОДА в Сарми

  • Прогноз погоды в Сарми
  • Монитор погоды в Сарми

АРХИВ ПОГОДЫ в Сарми

Время (UTC), дата Ветер
(напр.,м/с)
 
Видим.   Явления Облачность Т
(С)
Тd
(С)
f
(%)
Тe
(С)
Тes
(С)
Комфортность P
(гПа)
Po
(гПа)
Тmin
(С)
Tmax
(С)
R
(мм)
R24
(мм)
S
(см)
03 20.06 штиль 0 11 км 8/3 450 м
[Cu Sc Ac trans Ci]
+29.3 +25.5 80 +43 +54 опасность
перегрева
1009.0 1008.5
06 20.06 штиль 0 12 км 10/5 450 м
[Cu Sc Ac As Cs]
+29.0 +25.4 81 +43 +45 опасность
перегрева
1007.8 1007.3
12 20.06 штиль 0 8000 м 9/4 420 м
[Cb cap Ac trans Ci]
+26.2 +24.6 91 +37 +37 очень
душно
1011.5 1010.9 +29.6
15 20.06 штиль 0 8000 м 9/4 450 м
[Cb cap Ac trans Ci]
+25.3 +23.7 91 +34 +34 очень
душно
1010.7 1010.1
00 21.06 В 2 11 км 8/3 450 м
[Cu Sc Ac lent Ci]
+27.0 +24.3 85 +38 +42 очень
душно
1010.0 1009.4 +24.3
03 21.06 ЮЗ 32 12 км 5/1 450 м
[Cu Sc Ac trans Ci]
+29.5 +24.8 76 +42 +42 опасность
перегрева
1090.4 1007.4
06 21.06 СВ 2 12 км 5/1 450 м
[Cu Sc Ac trans Ci]
+29.7 +25.0 76 +43 +48 опасность
перегрева
1006.6 1006.1
09 21.06 СВ 2 8000 м 5/1 450 м
[Cu Sc Ac trans Ci]
+28.9 +24.9 79 +41 +41 опасность
перегрева
1008.7 1008.2
12 21.06 штиль 0 8000 м 9/6 420 м
[Cb cap Ac trans Ci sp]
+26.8 +24.5 87 +38 +38 очень
душно
1010.5 1010.0 +30.6
15 21.06 штиль 0 8000 м 8/6 420 м
[Cb cap Ac trans Ci sp]
+25.6 +23.6 89 +35 +35 очень
душно
1010.3 1009.8
00 22.06 штиль 0 11 км 6/1 450 м
[Cu Sc Ac trans Ci]
+27.0 +24.1 84 +37 +46 очень
душно
1010.3 1009.8 +24.2
03 22.06 В 2 12 км 6/1 450 м
[Cu Sc Ac trans Ci]
+30.0 +23.9 70 +41 +54 опасность
перегрева
1008.8 1008.2
06 22.06 СВ 3 12 км 6/1 450 м
[Cb cap Ac trans Ci]
+30.6 +25.4 74 +45 +49 опасность
перегрева
1006.6 1006.1
09 22.06 штиль 0 12 км 4/1 450 м
[Cu Sc Ac trans Ci fib]
+28.5 +24.1 77 +40 +40 очень
душно
1007.9 1007.3
12 22.06 штиль 0 8000 м 6/3 450 м
[Cu Sc Ac trans Cs]
+27.5 +24.3 83 +39 +39 очень
душно
1009.3 1008.8 +31.2
15 22.06 штиль 0 8000 м 6/3 450 м
[Cu Sc Ac trans Cs]
+25.9 +23.9 89 +36 +36 очень
душно
1008.8 1008.3
00 23.06 штиль 0 11 км 6/1 450 м
[Cu Sc Ac trans Ci]
+29.5 +25.5 79 +43 +52 опасность
перегрева
1010.2 1009.6 +24.0
03 23.06 В 2 12 км 5/4 450 м
[Cu Sc Ac trans Ci]
+30.1 +25.4 76 +44 +54 опасность
перегрева
1009.4 1008.8
06 23.06 СВ 2 12 км 6/4 450 м
[Cu Sc Ac trans Ci]
+31.1 +25.4 72 +45 +49 опасность
перегрева
1007.5 1006.9
09 23.06 СВ 2 9000 м 6/4 450 м
[Cb cap Ac trans Ci]
+29.5 +24.8 76 +42 +42 опасность
перегрева
1008.9 1008.3
12 23.06 штиль 0 8000 м 9/4 420 м
[Cb cap Ac trans Ci sp]
+28.1 +24.3 80 +39 +39 очень
душно
1010.8 1010.2 +31.2
15 23.06 штиль 0 8000 м 5/3 450 м
[Cu Sc Ac trans Ci fib]
+25.3 +23.5 90 +34 +34 очень
душно
1010.5 1009.9
00 24.06 штиль 0 12 км 4/1 450 м
[Cu Sc Ac trans Ci sp]
+29.4 +24.7 76 +42 +52 опасность
перегрева
1011.9 1011.3 +24.0
03 24.06 С 2 12 км 4/1 450 м
[Cu Sc Ac trans Ci sp]
+31.0 +24.9 70 +44 +58 опасность
перегрева
1010.3 1009.8
06 24.06 С 2 12 км 3/1 450 м
[Cu Sc Ac trans Ci sp]
+31.2 +24.6 68 +44 +50 опасность
перегрева
1008.9 1008.4
09 24.06 штиль 0 9000 м 4/1 450 м
[Cu Sc Ac trans Ci sp]
+30.0 +24.9 74 +43 +43 опасность
перегрева
1010.2 1009.7
12 24.06 штиль 0 8000 м 5/3 450 м
[Cu Sc Ac trans Ci sp]
+27.1 +24.4 85 +38 +38 очень
душно
1012.2 1011.6 +31.4
15 24.06 штиль 0 8000 м 5/3 450 м
[Cu Sc Ac trans Ci sp]
+25.3 +23.9 92 +35 +35 очень
душно
1011.8 1011.2
00 25.06 З 2 12 км 5/3 450 м
[Cu Sc Ac trans Ci sp]
+30.0 +25.9 79 +45 +52 опасность
перегрева
1011.6 1011.1 +23.6
03 25.06 С 3 12 км 4/1 450 м
[Cu Sc Ac trans Ci sp]
+31.7 +25.6 70 +46 +59 опасность
перегрева
1010.2 1009.6
06 25.06 С 4 12 км 4/1 450 м
[Cu Sc Ac lent Ci fib]
+31.9 +26.2 72 +48 +52 опасность
перегрева
1008.3 1007.8
09 25.06 СЗ 2 9000 м 4/1 450 м
[Cu Sc Ac lent Ci fib]
+29.4 +24.8 76 +42 +42 опасность
перегрева
1008.7 1008.2
12 25.06 штиль 0 8000 м 6/3 450 м
[Cb cap Ac trans Ci]
+27.7 +24.7 84 +39 +39 очень
душно
1011.2 1010.6 +32.2
15 25.06 штиль 0 7000 м 6/3 450 м
[Cb cap Ac trans Ci]
+26.3 +24.0 87 +36 +36 очень
душно
1010.3 1009.8
00 26.06 З 2 12 км 6/1 450 м
[Cu Sc Ac trans Ci]
+28.6 +25.0 81 +41 +48 опасность
перегрева
1010.9 1010.3 +24.0
03 26.06 С 2 12 км 8/1 450 м
[Cu Sc Ac lent Ci]
+31.3 +24.9 69 +45 +55 опасность
перегрева
1009.6 1009.1
06 26.06 ЮЗ 2 9000 м 8/3 450 м
[Cu Sc Ac trans Ci]
+30.4 +25.5 75 +45 +48 опасность
перегрева
1007.7 1007.2
09 26.06 штиль 0 10 км слаб. дождь 9/8 450 м
[Cu Sc Ac trans Ci]
+26.7 +24.2 86 +37 +37 очень
душно
1008.9 1008.4
12 26.06 штиль 0 8000 м зарница {дождь} 9/8 450 м
[Cu Sc Ac trans Ci fib]
+25.8 +24.6 93 +36 +36 очень
душно
1010.8 1010.3 +32.1 0.6
15 26.06 штиль 0 8000 м 9/3 420 м
[Cu Sc Ac trans Ci]
+25.4 +24.2 93 +35 +35 очень
душно
1010.1 1009.5

 

Местоположение метеостанции Сарми (Индонезия): широта -1.83 долгота 138.71 высота над уровнем моря 3 м.

В архиве по умолчанию представлена погода в Сарми за последнюю неделю. Архивные данные за месяц целиком и за предыдущие месяцы, начиная с января 2011 года, Вы можете получить, выбрав интересующий диапазон дат из раскрывающегося списка и нажав кнопку "Ввод!".


*Определитесь, кто Вы:
робот инопланетянин человек

Внимание! Время в таблицах - всемирное. Для получения местного времени необходимо прибавить поправку, которая равна 9 ч.

Смотрите также архив погоды в соседних городах и на ближайших метеорологических станциях:

Погода в Сентани (Индонезия) (218 км)
Погода в Джаяпуре (Индонезия) (238 км)
Погода в Вамене (Индонезия) (251 км)
Погода в Серуи (Индонезия) (276 км)
Погода в Биаке (Индонезия) (298 км)
Погода в Энаротали (Индонезия) (349 км)
Погода в Коконао (Индонезия) (379 км)
Погода в Набире (Индонезия) (394 км)
Погода в Танах Мерах (Индонезия) (507 км)
Погода в Маноквари (Индонезия) (529 км)

Пояснения к столбцам:

Ветер - указаны скорость ветра в м/с - средняя за 10 мин, порывы в срок и между сроками (в фигурных скобках) и направление, откуда дует ветер: С - северный, СВ - северо-восточный, В - восточный, ЮВ - юго-восточный, Ю - южный, ЮЗ - юго-западный, З - западный, СЗ - северо-западный.
Видимость - горизонтальная дальность видимости в метрах или километрах. При видимости от 1 до 10 км при отсутствии осадков обычно наблюдается дымка, при ухудшении видимости до 1 км и менее - туман. В сухую погоду видимость может ухудшаться дымом, пылью или мглою.
Явления - указаны атмосферные явления, наблюдавшиеся в срок или в последний час перед сроком; фигурными скобками обозначены явления, наблюдавшиеся между сроками (за 1-3 часа до срока); квадратными скобками обозначены град или гололедные отложения с указанием их диаметра в мм.
Облачность - указаны через наклонную черту общая и нижняя облачность в баллах и высота нижней границы облаков в метрах; квадратными скобками обозначены формы облаков: Ci - перистые, Cs - перисто-слоистые, Cc - перисто-кучевые, Ac - высококучевые, As - высокослоистые, Sc - слоисто-кучевые, Ns - слоисто-дождевые, Cu - кучевые, Cb - кучево-дождевые. Подробнее классификацию облаков см. в Атласе облаков (PDF).
T - Температура воздуха - температура, измеренная на высоте 2 м над землей.
Td - Температура точки росы - температура, при понижении до которой содержащийся в воздухе водяной пар достигнет насыщения.
f - Относительная влажность воздуха - влажноcть воздуха, измеренная на высоте 2 м над землей.
Te - Эффективная температура - температура, которую ощущает одетый по сезону человек в тени. Характеристика душности погоды. При расчете учитывается влияние влажности воздуха и скорости ветра на теплоощущения человека.
Tes - Эффективная температура на солнце - температура, которую ощущает человек, с поправкой на солнечный нагрев. Характеристика знойности погоды. Зависит от высоты солнца над горизонтом, облачности и скорости ветра. Ночью, в пасмурную погоду, а также при ветре 12 м/с и более поправка равна нулю.
P - Атмосферное давление - приведенное к уровню моря атмосферное давление.
Po - Атмосферное давление - измеренное на уровне метеостанции атмосферное давление.
Tmin - Минимальная температура - минимум температуры воздуха на высоте 2 м над землей.
Tmax - Максимальная температура - максимум температуры воздуха на высоте 2 м над землей.
R - Количество осадков - Количество выпавших осадков за период времени, мм. При наведении курсора мыши на число - период времени, за который выпало указанное количество осадков.
R24 - Количество осадков - Количество выпавших осадков за 24 часа, мм.
S - Снежный покров - Высота снежного покрова, см. При наведении курсора мыши на число - состояние снежного покрова и степень покрытия местности в баллах.